Flag for Russia Weather past 2 weeks in Kazan, Russia

Now
39 °F

Clear.


Feels Like: 32 °F
Forecast: 34 / 53 °F
Wind: 10 mph from Southeast

Location: Kazan'


UV Index: 3 (Moderate)

Visibility: 10 mi


Pressure: 30.15 "Hg

Humidity: 87%

Dew point: 36 °F

Location of KazanLocation

Historic Weather in Kazan

°F

Kazan temperature yesterday

Maximum temperature yesterday: 50 °F (at 4:00 PM)
Minimum temperature yesterday: 36 °F (at 12:00 AM)
Average temperature yesterday: 42 °F

Past Weeks' High & Low Weather Summary

 TemperatureHumidityPressure
High50 °F (Apr 16, 4:00 PM)100% (Apr 2, 1:00 PM)30.51 "Hg (Apr 2, 1:00 PM)
Low19 °F (Apr 11, 6:00 AM)32% (Apr 11, 3:00 PM)29.47 "Hg (Apr 2, 10:30 AM)
Average33 °F76%29.96 "Hg
* Reported Apr 2 3:00 AM — Apr 17 3:00 AM, Kazan, Weather by CustomWeather, © 2014

Note: Actual official high and low records may vary slightly from our data, if they occured in-between our weather recording intervals... More about our weather records

Advertising

Historic Weather Conditions — Data for Previous 24 hours

 ConditionsComfort  
Time TempWeatherWind HumidityBarometerVisibility
3:00 AM
Apr 17
37 °FClear.8 mph100%30.15 "Hg10 mi
2:30 AM36 °FClear.8 mph93%30.15 "Hg10 mi
2:00 AM37 °FClear.8 mph93%30.15 "Hg10 mi
1:30 AM41 °FClear.10 mph87%30.15 "Hg10 mi
1:00 AM41 °FClear.10 mph87%30.18 "Hg10 mi
12:30 AM41 °FClear.10 mph87%30.18 "Hg10 mi
12:00 AM41 °FClear.10 mph93%30.18 "Hg10 mi
11:30 PM
Apr 16
39 °FClear.10 mph93%30.18 "Hg10 mi
11:00 PM39 °FClear.10 mph93%30.18 "Hg10 mi
10:30 PM41 °FClear.10 mph93%30.21 "Hg10 mi
10:00 PM43 °FClear.10 mph87%30.21 "Hg10 mi
9:30 PM43 °FClear.10 mph87%30.21 "Hg10 mi
9:00 PM43 °FClear.10 mph87%30.21 "Hg10 mi
8:30 PM45 °FSunny.10 mph81%30.21 "Hg10 mi
8:00 PM45 °FSunny.10 mph81%30.21 "Hg10 mi
7:30 PM45 °FSunny.8 mph87%30.21 "Hg10 mi
7:00 PM46 °FSunny.8 mph82%30.21 "Hg10 mi
6:30 PM48 °FSunny.8 mph76%30.21 "Hg10 mi
6:00 PM48 °FSunny.10 mph82%30.21 "Hg10 mi
5:00 PM50 °FSunny.10 mph76%30.24 "Hg10 mi
4:30 PM50 °FSunny.13 mph76%30.24 "Hg10 mi
4:00 PM50 °FSunny.13 mph76%30.24 "Hg10 mi
3:30 PM48 °FSunny.15 mph82%30.24 "Hg10 mi
3:00 PM48 °FPartly sunny.15 mph82%30.24 "HgN/A
2:30 PM48 °FPartly sunny.13 mph76%30.24 "HgN/A
2:00 PM48 °FSunny.13 mph82%30.27 "Hg10 mi
1:30 PM45 °FSunny.10 mph81%30.27 "Hg10 mi
1:00 PM45 °FLight rain. More clouds than sun.10 mph81%30.27 "HgN/A
12:30 PM43 °FLight rain. Broken clouds.8 mph81%30.27 "HgN/A
12:00 PM43 °FLight rain. Partly sunny.10 mph81%30.27 "HgN/A
11:30 AM43 °FSunny.8 mph76%30.27 "Hg10 mi
11:00 AM41 °FSunny.10 mph81%30.27 "Hg10 mi
10:30 AM41 °FSunny.6 mph87%30.27 "Hg10 mi
10:00 AM41 °FSunny.8 mph81%30.27 "Hg10 mi
9:30 AM39 °FSunny.8 mph87%30.27 "Hg10 mi
9:00 AM39 °FSunny.8 mph87%30.27 "Hg10 mi
8:30 AM39 °FSunny.8 mph87%30.27 "Hg10 mi
8:00 AM37 °FSunny.8 mph93%30.27 "Hg10 mi
7:30 AM37 °FSunny.8 mph93%30.27 "Hg10 mi
7:00 AM36 °FSunny.10 mph100%30.24 "Hg10 mi
6:30 AM36 °FClear.10 mph100%30.24 "Hg10 mi
6:00 AM36 °FClear.10 mph93%30.24 "Hg10 mi
5:30 AM36 °FClear.10 mph100%30.24 "Hg10 mi
5:00 AM36 °FFog.10 mph100%30.24 "Hg3 mi
4:30 AM36 °FFog.10 mph100%30.24 "Hg3 mi
Weather by CustomWeather, © 2014

See weather overview